Back to catalog

CZ-6A R/B

AlivePO
NORAD 66051·ROCKET BODY·🇨🇳 China

Launched Oct 17, 2025 from Taiyuan Satellite Launch Center

Loading…

Next Passes (next 24 hours)

TLE

FreshSource: Space-Track

Epoch: Sep 14, 2026, 15:39 UTC

1 66051U 25233U   26257.65243504  .00000183  00000-0  34574-4 0  9993
2 66051  89.0389  29.6839 0085376  54.5135 306.4003 14.57237938 48395

Track CZ-6A R/B in real time with AllMySat

Download on the App Store